Weather in Kashino

Russia / Vladimir Oblast     55°59′52″N   38°51′18″E
temp.,
°C
wind,
m/s
gust,
m/s
humid.,
%
clouds,
%
prec.,
mm/h
press.,
hPa
HPBL,
m
4 march, thu
thu400:00−1wsw51291100 0.1 1006703
03:000wsw61397100 0.3 1003880
06:00+1w71497100 1.1 9991037
09:00+1w71395100 1.4 9991072
12:00+1wnw5973100 1.3 9991156
15:00+1nw3669100 1.3 9991228
18:00−2nw2383100 0.0 100041
21:00−6n2292100 0.0 100143
5 march, fri
fri500:00−8nw22925 0.0 100223
03:00−9wnw229531 0.0 100445
06:00−9wnw23967 0.0 100549
09:00−6wnw369238 0.1 1006363
12:00−4wnw4680100 0.1 1007919
15:00−3wnw4770100 0.5 10091338
18:00−6wnw238593 0.3 101179
21:00−9nw229146 0.3 101421
6 march, sat
sat600:00−11nne12950 0.0 101521
03:00−12e229424 0.0 101634
06:00−12se129388 0.0 101653
09:00−10ene119194 0.2 1016137
12:00−7n2385100 0.3 1016531
15:00−6nnw3471100 0.4 10161015
18:00−10nw228411 0.0 101521
21:00−12sw23895 0.0 101630
7 march, sun
sun700:00−12sw399024 0.0 1013228
03:00−10ssw5129039 0.0 1010389
06:00−8sw61391100 0.1 1005719
09:00−6sw71490100 0.4 10001057
12:00−4sw71491100 1.2 9961148
15:00−2w81393100 2.9 9941095
18:00−7wnw5136767 0.3 997674
21:00−10sw3117933 0.3 999261
8 march, mon
mon800:00−7wsw51477100 0.0 997748
03:00−7sw41284100 0.0 995710
06:00−7sw41094100 0.4 993647
09:00−9w4983100 0.6 995780
12:00−7nw5881100 0.2 9981063
15:00−7nw71176100 0.3 10021071
18:00−9wnw41085100 0.1 1005792
21:00−11wnw399292 0.1 1009420